�������l�o���
Date,Time,MP-1(��Sv/h),MP-2(��Sv/h),MP-3(��Sv/h),MP-4(��Sv/h),MP-5(��Sv/h),MP-6(��Sv/h),MP-7(��Sv/h),MP-8(��Sv/h),����,����(m/s),���J
2021/10/13,00:00,0.568,0.836,0.545,1.022,0.710,0.356,0.603,0.570,�k�k��,7.2,�L
2021/10/13,00:10,0.570,0.837,0.546,1.025,0.712,0.359,0.603,0.569,�k�k��,5.9,�L
2021/10/13,00:20,0.570,0.840,0.545,1.023,0.710,0.358,0.603,0.570,�k�k��,6.3,�L
2021/10/13,00:30,0.569,0.837,0.545,1.022,0.711,0.357,0.605,0.570,�k�k��,5.4,�L
2021/10/13,00:40,0.571,0.838,0.547,1.025,0.709,0.358,0.604,0.569,�k�k��,6.3,�L
2021/10/13,00:50,0.572,0.837,0.547,1.023,0.711,0.358,0.605,0.569,�k�k��,4.7,�L
2021/10/13,01:00,0.572,0.837,0.548,1.024,0.710,0.356,0.603,0.571,�k�k��,5.4,�L
2021/10/13,01:10,0.572,0.837,0.550,1.021,0.708,0.357,0.603,0.567,�k�k��,4.8,�L
2021/10/13,01:20,0.572,0.836,0.548,1.019,0.709,0.357,0.604,0.570,�k,4.5,�L
2021/10/13,01:30,0.571,0.839,0.553,1.020,0.709,0.358,0.603,0.568,�k�k��,5.8,�L
2021/10/13,01:40,0.572,0.835,0.552,1.020,0.707,0.359,0.603,0.567,�k�k��,5.6,�L
2021/10/13,01:50,0.569,0.837,0.550,1.016,0.706,0.359,0.602,0.568,�k�k��,4.4,�L
2021/10/13,02:00,0.567,0.831,0.549,1.012,0.705,0.359,0.601,0.566,�k�k��,5.4,�L
2021/10/13,02:10,0.567,0.831,0.549,1.011,0.704,0.359,0.602,0.568,�k�k��,4.7,�L
2021/10/13,02:20,0.566,0.829,0.546,1.006,0.700,0.356,0.600,0.565,�k�k��,5.6,�L
2021/10/13,02:30,0.566,0.826,0.547,1.006,0.701,0.358,0.600,0.565,�k�k��,5.7,�L
2021/10/13,02:40,0.567,0.828,0.547,1.005,0.699,0.359,0.600,0.566,�k�k��,7.0,�L
2021/10/13,02:50,0.565,0.826,0.546,1.001,0.696,0.360,0.600,0.565,�k�k��,5.5,�L
2021/10/13,03:00,0.564,0.822,0.543,0.999,0.690,0.359,0.597,0.565,�k�k��,8.2,�L
2021/10/13,03:10,0.567,0.827,0.544,1.002,0.691,0.361,0.598,0.564,�k,5.5,�L
2021/10/13,03:20,0.567,0.826,0.547,1.001,0.691,0.359,0.597,0.564,�k�k��,4.4,�L
2021/10/13,03:30,0.567,0.826,0.545,0.998,0.689,0.360,0.596,0.563,�k,4.2,�L
2021/10/13,03:40,0.562,0.822,0.541,0.993,0.681,0.358,0.596,0.562,�k��,7.0,�L
2021/10/13,03:50,0.562,0.819,0.542,0.993,0.683,0.360,0.596,0.565,�k,4.6,�L
2021/10/13,04:00,0.568,0.826,0.544,0.998,0.684,0.359,0.600,0.566,�k�k��,6.3,�L
2021/10/13,04:10,0.567,0.830,0.544,0.999,0.682,0.359,0.599,0.564,�k�k��,4.8,�L
2021/10/13,04:20,0.568,0.827,0.544,0.998,0.683,0.361,0.600,0.566,�k�k��,4.9,�L
2021/10/13,04:30,0.568,0.827,0.544,0.999,0.684,0.360,0.600,0.565,-,CALM,�L
2021/10/13,04:40,0.567,0.825,0.544,0.998,0.682,0.360,0.598,0.567,�k�k��,5.1,�L
2021/10/13,04:50,0.570,0.828,0.544,0.999,0.681,0.359,0.598,0.565,�k�k��,6.7,�L
2021/10/13,05:00,0.568,0.829,0.543,0.999,0.679,0.359,0.600,0.566,�k�k��,6.7,�L
2021/10/13,05:10,0.569,0.832,0.544,1.001,0.680,0.359,0.599,0.567,�k�k��,7.7,�L
2021/10/13,05:20,0.567,0.829,0.541,1.000,0.678,0.357,0.599,0.567,�k�k��,7.9,�L
2021/10/13,05:30,0.568,0.829,0.541,0.999,0.677,0.356,0.597,0.565,�k�k��,5.3,�L
2021/10/13,05:40,0.564,0.828,0.540,0.999,0.679,0.356,0.598,0.566,�k�k��,6.7,�L
2021/10/13,05:50,0.565,0.826,0.539,1.001,0.677,0.355,0.598,0.565,�k�k��,6.3,�L
2021/10/13,06:00,0.564,0.827,0.538,1.002,0.678,0.356,0.599,0.566,�k�k��,6.9,�L
2021/10/13,06:10,0.565,0.828,0.538,1.002,0.679,0.353,0.598,0.566,�k�k��,5.5,�L
2021/10/13,06:20,0.564,0.829,0.537,1.004,0.680,0.353,0.599,0.565,�k�k��,6.1,�L
2021/10/13,06:30,0.563,0.829,0.536,1.003,0.679,0.353,0.599,0.566,�k�k��,4.1,�L
2021/10/13,06:40,0.563,0.829,0.537,1.006,0.680,0.351,0.598,0.565,�k�k��,5.5,�L
2021/10/13,06:50,0.564,0.828,0.535,1.006,0.679,0.351,0.598,0.566,�k�k��,5.3,�L
2021/10/13,07:00,0.563,0.830,0.535,1.006,0.681,0.351,0.599,0.568,�k�k��,5.9,�L
2021/10/13,07:10,0.563,0.832,0.535,1.006,0.682,0.350,0.600,0.568,�k�k��,5.4,�L
2021/10/13,07:20,0.562,0.830,0.533,1.008,0.683,0.351,0.599,0.567,�k��,6.0,�L
2021/10/13,07:30,0.562,0.831,0.533,1.009,0.683,0.351,0.599,0.569,�k�k��,5.6,�L
2021/10/13,07:40,0.562,0.831,0.533,1.011,0.683,0.349,0.600,0.568,�k��,5.9,�L
2021/10/13,07:50,0.561,0.831,0.534,1.011,0.686,0.351,0.600,0.568,�k�k��,6.7,�L
2021/10/13,08:00,0.561,0.832,0.533,1.010,0.683,0.349,0.600,0.569,�k�k��,6.9,�L
2021/10/13,08:10,0.563,0.833,0.534,1.012,0.685,0.350,0.601,0.568,�k��,6.4,�L
2021/10/13,08:20,0.564,0.831,0.536,1.013,0.687,0.350,0.600,0.567,�k��,6.7,�L
2021/10/13,08:30,0.564,0.830,0.537,1.013,0.687,0.350,0.600,0.568,�k��,6.9,�L
2021/10/13,08:40,0.562,0.831,0.537,1.015,0.688,0.352,0.601,0.567,�k��,7.2,�L
2021/10/13,08:50,0.564,0.829,0.536,1.014,0.687,0.352,0.599,0.565,�k�k��,7.0,�L
2021/10/13,09:00,0.563,0.827,0.537,1.012,0.685,0.353,0.599,0.567,�k�k��,6.7,�L
2021/10/13,09:10,0.560,0.823,0.537,1.010,0.683,0.352,0.599,0.567,�k�k��,5.8,�L
2021/10/13,09:20,0.560,0.825,0.537,1.010,0.686,0.351,0.598,0.566,�k�k��,5.6,�L
2021/10/13,09:30,0.562,0.822,0.537,1.011,0.686,0.352,0.598,0.565,�k,6.4,�L
2021/10/13,09:40,0.559,0.822,0.536,1.008,0.686,0.352,0.598,0.563,�k,6.3,�L
2021/10/13,09:50,0.561,0.825,0.536,1.007,0.685,0.351,0.599,0.566,�k�k��,6.3,�L
2021/10/13,10:00,0.561,0.824,0.536,1.009,0.685,0.352,0.599,0.565,�k�k��,6.7,�L
2021/10/13,10:10,0.562,0.823,0.538,1.008,0.688,0.351,0.598,0.566,�k�k��,7.4,�L
2021/10/13,10:20,0.561,0.822,0.536,1.009,0.685,0.353,0.598,0.565,�k�k��,6.4,�L
2021/10/13,10:30,0.560,0.822,0.537,1.009,0.686,0.351,0.599,0.566,�k�k��,7.8,�L
2021/10/13,10:40,0.560,0.821,0.537,1.008,0.686,0.353,0.598,0.565,�k,6.9,�L
2021/10/13,10:50,0.558,0.821,0.537,1.006,0.685,0.351,0.598,0.565,�k�k��,5.8,�L
2021/10/13,11:00,0.562,0.820,0.538,1.007,0.686,0.351,0.597,0.565,�k�k��,5.8,�L
2021/10/13,11:10,0.563,0.824,0.539,1.009,0.687,0.353,0.599,0.565,�k�k��,4.3,�L
2021/10/13,11:20,0.561,0.825,0.537,1.009,0.689,0.354,0.599,0.566,�k,4.9,�L
2021/10/13,11:30,0.561,0.827,0.538,1.009,0.689,0.352,0.599,0.566,�k,4.5,�L
2021/10/13,11:40,0.563,0.828,0.535,1.013,0.688,0.355,0.598,0.564,�k,4.3,�L
2021/10/13,11:50,0.562,0.829,0.537,1.013,0.690,0.355,0.597,0.567,�k�k��,5.7,�L
2021/10/13,12:00,0.563,0.830,0.537,1.012,0.691,0.356,0.598,0.567,�k�k��,5.6,�L
2021/10/13,12:10,0.562,0.830,0.536,1.011,0.691,0.355,0.598,0.566,�k�k��,4.1,�L
2021/10/13,12:20,0.561,0.830,0.538,1.012,0.691,0.353,0.598,0.566,�k,3.3,�L
2021/10/13,12:30,0.561,0.831,0.535,1.014,0.691,0.354,0.597,0.566,�k�k��,2.3,�L
2021/10/13,12:40,0.564,0.830,0.538,1.015,0.690,0.355,0.601,0.568,�k�k��,3.7,�L
2021/10/13,12:50,0.563,0.829,0.537,1.016,0.690,0.354,0.599,0.569,�k,3.4,�L
2021/10/13,13:00,0.564,0.834,0.538,1.015,0.694,0.356,0.599,0.570,�k�k��,2.9,�L
2021/10/13,13:10,0.564,0.832,0.536,1.017,0.693,0.355,0.599,0.568,�k,4.6,�L
2021/10/13,13:20,0.563,0.831,0.540,1.019,0.693,0.356,0.599,0.568,�k�k��,5.7,�L
2021/10/13,13:30,0.564,0.831,0.540,1.018,0.695,0.356,0.597,0.567,�k�k��,5.7,�L
2021/10/13,13:40,0.564,0.830,0.538,1.019,0.694,0.355,0.599,0.567,�k�k��,4.6,�L
2021/10/13,13:50,0.562,0.828,0.539,1.018,0.694,0.354,0.599,0.568,�k�k��,4.6,�L
2021/10/13,14:00,0.563,0.828,0.537,1.019,0.692,0.354,0.597,0.570,�k�k��,4.8,�L
2021/10/13,14:10,0.562,0.829,0.536,1.017,0.693,0.352,0.600,0.568,�k�k��,4.6,�L
2021/10/13,14:20,0.563,0.832,0.535,1.017,0.691,0.352,0.599,0.569,�k�k��,5.3,�L
2021/10/13,14:30,0.563,0.832,0.533,1.017,0.691,0.352,0.599,0.570,�k�k��,5.4,��
2021/10/13,14:40,0.561,0.831,0.536,1.017,0.691,0.351,0.600,0.569,�k�k��,5.0,��
2021/10/13,14:50,0.560,0.831,0.534,1.015,0.692,0.351,0.600,0.568,�k�k��,4.7,��
2021/10/13,15:00,0.558,0.830,0.533,1.018,0.693,0.350,0.599,0.569,�k�k��,3.8,��
2021/10/13,15:10,0.561,0.830,0.533,1.018,0.691,0.349,0.600,0.568,�k�k��,4.9,��
2021/10/13,15:20,0.560,0.832,0.534,1.019,0.691,0.349,0.599,0.567,�k�k��,5.9,�L
2021/10/13,15:30,0.563,0.831,0.534,1.015,0.693,0.347,0.600,0.567,�k�k��,5.6,�L
2021/10/13,15:40,0.561,0.831,0.533,1.016,0.694,0.348,0.600,0.567,�k�k��,6.1,�L
2021/10/13,15:50,0.563,0.832,0.533,1.019,0.693,0.348,0.600,0.568,�k�k��,6.0,�L
2021/10/13,16:00,0.562,0.830,0.534,1.021,0.695,0.349,0.600,0.569,�k�k��,5.6,�L
2021/10/13,16:10,0.562,0.837,0.534,1.017,0.696,0.348,0.599,0.568,�k�k��,6.1,��
2021/10/13,16:20,0.563,0.835,0.534,1.020,0.696,0.348,0.601,0.568,�k�k��,5.9,�L
2021/10/13,16:30,0.562,0.835,0.535,1.018,0.695,0.350,0.601,0.570,�k�k��,6.1,�L
2021/10/13,16:40,0.565,0.837,0.534,1.018,0.695,0.349,0.601,0.569,�k�k��,6.0,�L
2021/10/13,16:50,0.562,0.837,0.534,1.021,0.695,0.350,0.602,0.570,�k��,5.2,�L
2021/10/13,17:00,0.565,0.837,0.536,1.018,0.696,0.352,0.599,0.570,�k�k��,5.0,�L
2021/10/13,17:10,0.565,0.836,0.535,1.020,0.697,0.350,0.601,0.569,�k�k��,6.5,�L
2021/10/13,17:20,0.563,0.836,0.537,1.020,0.697,0.350,0.602,0.569,�k��,7.4,�L
2021/10/13,17:30,0.566,0.836,0.536,1.021,0.698,0.351,0.602,0.570,�k�k��,6.0,�L
2021/10/13,17:40,0.566,0.836,0.537,1.024,0.700,0.351,0.602,0.570,�k�k��,6.3,�L
2021/10/13,17:50,0.565,0.833,0.536,1.022,0.697,0.352,0.601,0.569,�k�k��,6.3,�L
2021/10/13,18:00,0.566,0.833,0.538,1.024,0.698,0.352,0.602,0.570,�k�k��,4.8,�L
2021/10/13,18:10,0.565,0.834,0.537,1.022,0.697,0.353,0.603,0.571,�k�k��,4.6,�L
2021/10/13,18:20,0.564,0.836,0.536,1.021,0.698,0.353,0.602,0.571,�k�k��,4.8,�L
2021/10/13,18:30,0.563,0.835,0.537,1.022,0.697,0.354,0.602,0.571,�k,5.3,�L
2021/10/13,18:40,0.567,0.836,0.539,1.022,0.697,0.354,0.603,0.570,�k,5.8,�L
2021/10/13,18:50,0.567,0.836,0.538,1.023,0.697,0.353,0.603,0.570,�k,6.5,�L
2021/10/13,19:00,0.565,0.835,0.537,1.024,0.698,0.352,0.603,0.571,�k,5.5,�L
2021/10/13,19:10,0.568,0.837,0.539,1.022,0.700,0.353,0.602,0.571,�k�k��,4.7,�L
2021/10/13,19:20,0.567,0.837,0.539,1.022,0.700,0.353,0.604,0.571,�k�k��,5.3,�L
2021/10/13,19:30,0.565,0.834,0.538,1.023,0.700,0.352,0.601,0.572,�k�k��,6.9,�L
2021/10/13,19:40,0.563,0.835,0.538,1.021,0.698,0.353,0.603,0.572,�k�k��,6.1,�L
2021/10/13,19:50,0.564,0.836,0.535,1.023,0.698,0.352,0.602,0.570,�k�k��,5.4,��
2021/10/13,20:00,0.564,0.835,0.535,1.019,0.699,0.351,0.603,0.570,�k�k��,5.7,��
2021/10/13,20:10,0.563,0.835,0.534,1.021,0.697,0.352,0.603,0.571,�k�k��,5.7,��
2021/10/13,20:20,0.562,0.835,0.535,1.021,0.699,0.352,0.603,0.571,�k��,6.0,��
2021/10/13,20:30,0.562,0.835,0.535,1.022,0.698,0.351,0.603,0.570,�k�k��,6.1,�L
2021/10/13,20:40,0.564,0.835,0.538,1.022,0.698,0.351,0.602,0.571,�k�k��,7.0,�L
2021/10/13,20:50,0.563,0.837,0.537,1.023,0.700,0.352,0.601,0.570,�k�k��,7.4,�L
2021/10/13,21:00,0.563,0.835,0.535,1.023,0.701,0.352,0.604,0.570,�k�k��,6.5,�L
2021/10/13,21:10,0.564,0.839,0.537,1.025,0.701,0.352,0.603,0.571,�k�k��,6.4,�L
2021/10/13,21:20,0.565,0.836,0.535,1.023,0.700,0.350,0.603,0.571,�k�k��,6.8,�L
2021/10/13,21:30,0.565,0.835,0.535,1.023,0.701,0.351,0.603,0.571,�k�k��,6.7,�L
2021/10/13,21:40,0.566,0.836,0.536,1.024,0.702,0.353,0.602,0.571,�k�k��,6.9,�L
2021/10/13,21:50,0.563,0.837,0.537,1.023,0.703,0.351,0.603,0.572,�k�k��,6.5,�L
2021/10/13,22:00,0.565,0.838,0.538,1.022,0.703,0.350,0.603,0.571,�k�k��,6.9,�L
2021/10/13,22:10,0.565,0.839,0.536,1.024,0.702,0.351,0.601,0.572,�k�k��,6.6,�L
2021/10/13,22:20,0.566,0.837,0.536,1.026,0.701,0.351,0.604,0.572,�k�k��,6.6,�L
2021/10/13,22:30,0.564,0.836,0.538,1.025,0.705,0.352,0.603,0.573,�k��,7.3,�L
2021/10/13,22:40,0.564,0.838,0.537,1.025,0.705,0.352,0.602,0.572,�k�k��,6.5,�L
2021/10/13,22:50,0.564,0.838,0.539,1.025,0.703,0.352,0.604,0.572,�k��,6.3,�L
2021/10/13,23:00,0.565,0.838,0.539,1.025,0.705,0.352,0.604,0.570,�k��,7.2,��
2021/10/13,23:10,0.566,0.838,0.537,1.026,0.704,0.352,0.601,0.572,�k�k��,7.0,��
2021/10/13,23:20,0.564,0.838,0.536,1.024,0.703,0.353,0.600,0.573,�k�k��,6.3,��
2021/10/13,23:30,0.563,0.836,0.535,1.027,0.702,0.352,0.604,0.571,�k�k��,6.4,��
2021/10/13,23:40,0.566,0.836,0.536,1.022,0.704,0.352,0.604,0.572,�k�k��,6.5,��
2021/10/13,23:50,0.563,0.836,0.534,1.025,0.702,0.351,0.603,0.571,�k�k��,7.2,��
